Burnside, LA

11:24 PM CDT on September 29, 2016 (GMT -0500)
Gonzales

Weather History for KL38 - June, 2014

Change the Weather History Date:

Wednesday, June 18, 2014

  Actual Average (KBTR) Record (KBTR)
Temperature  
Mean Temperature 80 °F 82 °F  
Max Temperature 90 °F 91 °F 100 °F (1918)
Min Temperature 69 °F 72 °F 59 °F (1917)
Degree Days  
Heating Degree Days 0 0  
Month to date heating degree days 0  
Since 1 June heating degree days 0  
Since 1 July heating degree days 1555  
Cooling Degree Days 14 17  
Month to date cooling degree days 278  
Year to date cooling degree days 843  
Since 1 June cooling degree days 278  
Growing Degree Days 30 (Base 50)    
Moisture  
Dew Point 74 °F    
Average Humidity 84    
Maximum Humidity 100    
Minimum Humidity 53    
Precipitation  
Precipitation 0.10 in 0.24 in 2.29 in (1947)
Month to date precipitation 3.69  
Year to date precipitation 28.21  
Snow  
Snow 0.00 in - - ()
Month to date snowfall  
Since 1 June snowfall  
Since 1 July snowfall  
Snow Depth -    
Sea Level Pressure  
Sea Level Pressure 30.07 in    
Wind  
Wind Speed 1 mph (South)    
Max Wind Speed 12 mph    
Max Gust Speed -    
Visibility 9 miles    
Events Rain , Thunderstorm    
T = Trace of Precipitation, MM = Missing Value Source: NWS Daily Summary

Daily Weather History Graph

Daily Weather History Graph

Search for Another Location

Airport or City:

Trip Planner

Search our weather history database for the weather conditions in past years. The results will help you decide how hot, cold, wet, or windy it might be!

Date:

Astronomy

Jun. 18, 2014 Rise Set
Actual Time 6:02 AM CDT 8:07 PM CDT
Civil Twilight 5:34 AM CDT 8:35 PM CDT
Nautical Twilight 5:01 AM CDT 9:08 PM CDT
Astronomical Twilight 4:25 AM CDT 9:44 PM CDT
Moon No Moon Rise 12:01 PM CDT (6/18)
Length of Visible Light 15h 00m
Length of Day
14h 05m
Waning Gibbous, 62% of the Moon is Illuminated
Jun 18
Waning Gibbous
Jun 19
Last Quarter
Jun 27
New
Jul 5
First Quarter
Jul 12
Full

Hourly Weather History & Observations

Time (CDT) Temp. Heat Index Dew Point Humidity Pressure Visibility Wind Dir Wind Speed Gust Speed Precip Events Conditions
12:15 AM 73.6 °F - 73.6 °F 100% 30.08 in 10.0 mi Calm Calm - N/A   Clear
12:35 AM 73.8 °F - 73.8 °F 100% 30.08 in 10.0 mi Calm Calm - N/A   Clear
1:15 AM 73.6 °F - 73.6 °F 100% 30.07 in 7.0 mi Calm Calm - N/A   Clear
1:35 AM 72.9 °F - 72.9 °F 100% 30.06 in 7.0 mi Calm Calm - N/A   Clear
1:55 AM 72.7 °F - 72.7 °F 100% 30.06 in 5.0 mi Calm Calm - N/A   Clear
2:15 AM 72.1 °F - 72.1 °F 100% 30.06 in 5.0 mi Calm Calm - N/A   Clear
2:35 AM 72.7 °F - 72.7 °F 100% 30.06 in 10.0 mi Calm Calm - N/A   Clear
2:55 AM 71.2 °F - 71.2 °F 100% 30.05 in 10.0 mi Calm Calm - N/A   Clear
3:15 AM 72.3 °F - 72.3 °F 100% 30.06 in 7.0 mi Calm Calm - N/A   Clear
3:35 AM 72.0 °F - 72.0 °F 100% 30.06 in 4.0 mi Calm Calm - N/A   Clear
3:55 AM 71.4 °F - 71.4 °F 100% 30.07 in 3.0 mi Calm Calm - N/A   Clear
4:15 AM 71.4 °F - 71.4 °F 100% 30.07 in 7.0 mi Calm Calm - N/A   Clear
4:35 AM 71.2 °F - 71.2 °F 100% 30.07 in 5.0 mi Calm Calm - N/A   Clear
4:55 AM 70.7 °F - 70.7 °F 100% 30.07 in 2.5 mi Calm Calm - N/A   Clear
5:15 AM 70.3 °F - 70.3 °F 100% 30.07 in 0.8 mi Calm Calm - N/A   Mostly Cloudy
5:35 AM 70.0 °F - 70.0 °F 100% 30.07 in 2.0 mi Calm Calm - N/A   Scattered Clouds
5:55 AM 70.9 °F - 70.9 °F 100% 30.08 in 5.0 mi Calm Calm - N/A   Clear
6:15 AM 69.8 °F - 69.8 °F 100% 30.08 in 10.0 mi Calm Calm - N/A   Clear
6:35 AM 70.3 °F - 70.3 °F 100% 30.08 in 10.0 mi Calm Calm - N/A   Clear
6:55 AM 70.9 °F - 70.9 °F 100% 30.08 in 10.0 mi Calm Calm - N/A   Clear
7:15 AM 72.9 °F - 72.9 °F 100% 30.09 in 10.0 mi Calm Calm - N/A   Clear
7:35 AM 74.5 °F - 74.5 °F 100% 30.10 in 10.0 mi Calm Calm - N/A   Clear
7:55 AM 76.1 °F - 75.9 °F 99% 30.10 in 10.0 mi Calm Calm - N/A   Clear
8:15 AM 78.1 °F - 76.5 °F 95% 30.11 in 10.0 mi Calm Calm - N/A   Clear
8:35 AM 79.0 °F - 76.8 °F 93% 30.11 in 10.0 mi Calm Calm - N/A   Clear
9:15 AM 81.7 °F 88.7 °F 76.1 °F 83% 30.12 in 10.0 mi South 5.8 mph - N/A   Clear
9:35 AM 81.9 °F 89.7 °F 76.8 °F 85% 30.12 in 10.0 mi Calm Calm - N/A   Scattered Clouds
9:55 AM 82.6 °F 90.2 °F 75.7 °F 80% 30.11 in 10.0 mi Calm Calm - N/A   Scattered Clouds
10:15 AM 83.1 °F 90.1 °F 74.5 °F 75% 30.11 in 10.0 mi SSW 4.6 mph - N/A   Scattered Clouds
10:35 AM 84.2 °F 92.3 °F 75.0 °F 74% 30.11 in 10.0 mi South 3.5 mph - N/A   Scattered Clouds
10:55 AM 84.4 °F 92.0 °F 74.3 °F 72% 30.11 in 10.0 mi South 3.5 mph - N/A   Scattered Clouds
11:15 AM 84.4 °F 91.7 °F 73.9 °F 71% 30.11 in 10.0 mi SSW 4.6 mph - N/A   Scattered Clouds
11:35 AM 85.5 °F 92.6 °F 73.4 °F 67% 30.11 in 10.0 mi Calm Calm - N/A   Scattered Clouds
11:50 AM 86.0 °F 93.0 °F 73.0 °F 65% 30.11 in 10.0 mi SSE 5.8 mph - N/A   Scattered Clouds
12:15 PM 86.5 °F 93.3 °F 72.5 °F 63% 30.11 in 10.0 mi SW 4.6 mph - N/A   Scattered Clouds
12:35 PM 86.9 °F 93.3 °F 72.1 °F 61% 30.10 in 10.0 mi SE 3.5 mph - N/A   Clear
1:15 PM 87.6 °F 93.1 °F 70.9 °F 57% 30.10 in 10.0 mi SE 3.5 mph - N/A   Clear
1:35 PM 88.2 °F 94.6 °F 71.8 °F 58% 30.09 in 10.0 mi SE 3.5 mph - N/A   Clear
1:55 PM 88.9 °F 96.1 °F 72.3 °F 58% 30.09 in 10.0 mi SSE 5.8 mph - N/A   Clear
2:35 PM 89.6 °F 97.2 °F 72.3 °F 57% 30.08 in 10.0 mi SE 5.8 mph - N/A   Scattered Clouds
2:55 PM 89.4 °F 96.8 °F 72.3 °F 57% 30.07 in 10.0 mi SSW 6.9 mph - N/A   Scattered Clouds
3:35 PM 89.8 °F 97.5 °F 72.5 °F 57% 30.06 in 10.0 mi SSW 3.5 mph - N/A   Clear
3:55 PM 90.1 °F 96.3 °F 70.9 °F 53% 30.05 in 10.0 mi SW 4.6 mph - N/A   Scattered Clouds
4:15 PM 90.5 °F 97.5 °F 71.6 °F 54% 30.05 in 10.0 mi South 6.9 mph - N/A   Scattered Clouds
4:35 PM 90.7 °F 99.0 °F 72.9 °F 56% 30.05 in 10.0 mi South 8.1 mph - N/A   Mostly Cloudy
4:55 PM 90.5 °F 97.5 °F 71.8 °F 54% 30.04 in 10.0 mi SSE 5.8 mph - N/A   Overcast
5:15 PM 89.8 °F 97.5 °F 72.7 °F 57% 30.04 in 10.0 mi SSW 4.6 mph - N/A   Scattered Clouds
5:35 PM 89.8 °F 98.6 °F 73.8 °F 59% 30.03 in 10.0 mi SW 5.8 mph - N/A   Scattered Clouds
5:55 PM 89.4 °F 98.9 °F 74.5 °F 61% 30.03 in 10.0 mi SW 3.5 mph - N/A   Mostly Cloudy
6:15 PM 88.7 °F 97.7 °F 73.9 °F 62% 30.03 in 10.0 mi SW 5.8 mph - N/A   Overcast
6:35 PM 88.3 °F 96.9 °F 73.8 °F 62% 30.03 in 10.0 mi SW 5.8 mph - N/A   Mostly Cloudy
6:55 PM 88.3 °F 97.4 °F 74.1 °F 63% 30.04 in 10.0 mi Calm Calm - N/A   Overcast
7:15 PM 83.8 °F 93.9 °F 77.5 °F 81% 30.04 in 2.5 mi NNE 11.5 mph - 0.07 in Rain Heavy Rain
7:35 PM 79.0 °F - 76.1 °F 91% 30.06 in 10.0 mi North 4.6 mph - 0.10 in Rain , Thunderstorm Light Thunderstorms and Rain
7:55 PM 79.3 °F - 74.7 °F 86% 30.06 in 10.0 mi Calm Calm - 0.10 in   Mostly Cloudy
8:15 PM 78.3 °F - 76.1 °F 93% 30.05 in 10.0 mi Calm Calm - N/A   Scattered Clouds
8:35 PM 78.1 °F - 76.3 °F 94% 30.05 in 10.0 mi East 3.5 mph - N/A   Mostly Cloudy
8:55 PM 77.9 °F - 76.3 °F 95% 30.06 in 10.0 mi Calm Calm - N/A   Scattered Clouds
9:15 PM 76.6 °F - 76.6 °F 100% 30.06 in 10.0 mi Calm Calm - N/A   Mostly Cloudy
9:35 PM 76.6 °F - 76.5 °F 99% 30.06 in 10.0 mi Calm Calm - N/A   Scattered Clouds
9:55 PM 76.5 °F - 76.5 °F 100% 30.07 in 10.0 mi Calm Calm - N/A   Clear
10:15 PM 75.7 °F - 75.7 °F 100% 30.07 in 10.0 mi Calm Calm - N/A   Scattered Clouds
10:35 PM 76.3 °F - 76.3 °F 100% 30.07 in 10.0 mi Calm Calm - N/A   Mostly Cloudy
10:55 PM 75.7 °F - 75.6 °F 99% 30.07 in 10.0 mi Calm Calm - N/A   Scattered Clouds
11:15 PM 75.2 °F - 75.2 °F 100% 30.06 in 10.0 mi Calm Calm - N/A   Clear
11:35 PM 75.2 °F - 75.0 °F 99% 30.06 in 10.0 mi Calm Calm - N/A   Clear
11:55 PM 74.7 °F - 74.7 °F 100% 30.06 in 10.0 mi Calm Calm - N/A   Clear